Tracking 35280 objects as of 7-Sep-2026
HD Live streaming from Space Station
objects crossing your sky now

MOLNIYA 3-34


MOLNIYA 3-34 is no longer on orbit


NORAD ID: 19713
Int'l Code: 1988-112A
Launch date: December 22, 1988
Source: Commonwealth of Independent States (former USSR) (CIS)
Launch site: PLESETSK MISSILE AND SPACE COMPLEX (PKMTR)
Decay date: 2007-05-27
Your satellite tracking list
Your tracking list is empty




NASA's NSSDC Master Catalog

Two Line Element Set (TLE):
1 19713U 88112A   07147.27673194  .99999999  95681-5  85851-3 0  9995
2 19713 062.0302 058.1689 0205517 282.8402 230.0906 16.23957805135688
Source of the keplerian elements: AFSPC